TimeCDT,TemperatureF,Dew PointF,Humidity,Sea Level PressureIn,VisibilityMPH,Wind Direction,Wind SpeedMPH,Gust SpeedMPH,PrecipitationIn,Events,Conditions,WindDirDegrees,DateUTC
12:53 AM,52.0,48.0,86,30.06,10.0,East,4.6,-,N/A,,Clear,80,2013-09-03 05:53:00
1:53 AM,50.0,48.0,93,30.07,10.0,Calm,Calm,-,N/A,,Clear,0,2013-09-03 06:53:00
2:22 AM,48.2,46.4,93,30.08,1.8,Calm,Calm,-,N/A,,Clear,0,2013-09-03 07:22:00
2:32 AM,46.4,46.4,100,30.08,0.8,Calm,Calm,-,N/A,,Clear,0,2013-09-03 07:32:00
2:38 AM,48.2,46.4,93,30.08,2.0,Calm,Calm,-,N/A,,Clear,0,2013-09-03 07:38:00
2:45 AM,46.4,44.6,93,30.08,10.0,Calm,Calm,-,N/A,,Clear,0,2013-09-03 07:45:00
2:53 AM,46.9,45.0,93,30.08,10.0,Calm,Calm,-,N/A,,Clear,0,2013-09-03 07:53:00
3:17 AM,46.4,44.6,93,30.08,1.8,East,4.6,-,N/A,,Clear,80,2013-09-03 08:17:00
3:35 AM,46.4,44.6,93,30.08,3.0,ENE,4.6,-,N/A,,Clear,70,2013-09-03 08:35:00
3:53 AM,48.0,46.0,93,30.08,10.0,Calm,Calm,-,N/A,,Clear,0,2013-09-03 08:53:00
4:53 AM,46.9,45.0,93,30.09,10.0,Calm,Calm,-,N/A,,Clear,0,2013-09-03 09:53:00
5:53 AM,46.9,44.1,90,30.10,10.0,Calm,Calm,-,N/A,,Clear,0,2013-09-03 10:53:00
6:00 AM,46.4,44.6,93,30.10,1.8,Calm,Calm,-,N/A,,Clear,0,2013-09-03 11:00:00
6:12 AM,46.4,42.8,87,30.11,3.0,Calm,Calm,-,N/A,,Clear,0,2013-09-03 11:12:00
6:53 AM,46.0,44.1,93,30.11,4.0,Calm,Calm,-,N/A,,Clear,0,2013-09-03 11:53:00
7:04 AM,46.4,44.6,93,30.11,0.8,Calm,Calm,-,N/A,,Clear,0,2013-09-03 12:04:00
7:12 AM,46.4,44.6,93,30.11,0.2,Calm,Calm,-,N/A,Fog,Fog,0,2013-09-03 12:12:00
7:22 AM,46.4,44.6,93,30.11,1.0,Calm,Calm,-,N/A,,Clear,0,2013-09-03 12:22:00
7:28 AM,48.2,46.4,93,30.11,3.0,Calm,Calm,-,N/A,,Clear,0,2013-09-03 12:28:00
7:53 AM,51.1,48.9,92,30.12,8.0,Calm,Calm,-,N/A,,Clear,0,2013-09-03 12:53:00
8:53 AM,59.0,54.0,83,30.12,10.0,SSE,8.1,-,N/A,,Clear,160,2013-09-03 13:53:00
9:53 AM,64.0,55.0,73,30.10,10.0,SSE,6.9,-,N/A,,Clear,160,2013-09-03 14:53:00
10:53 AM,69.1,55.9,63,30.11,10.0,South,6.9,-,N/A,,Clear,190,2013-09-03 15:53:00
11:53 AM,73.9,57.0,55,30.09,10.0,South,6.9,-,N/A,,Clear,190,2013-09-03 16:53:00
12:53 PM,75.0,55.9,51,30.08,10.0,South,8.1,-,N/A,,Clear,190,2013-09-03 17:53:00
1:53 PM,79.0,57.0,47,30.06,10.0,South,9.2,-,N/A,,Clear,170,2013-09-03 18:53:00
2:53 PM,80.1,57.9,47,30.05,10.0,Variable,6.9,-,N/A,,Clear,0,2013-09-03 19:53:00
3:53 PM,81.0,60.1,49,30.03,10.0,SSW,8.1,-,N/A,,Clear,200,2013-09-03 20:53:00
4:53 PM,81.0,62.1,52,30.03,10.0,South,6.9,-,N/A,,Clear,180,2013-09-03 21:53:00
5:53 PM,80.1,62.1,54,30.03,10.0,South,8.1,-,N/A,,Clear,190,2013-09-03 22:53:00
6:53 PM,78.1,63.0,60,30.02,10.0,SW,5.8,-,N/A,,Clear,220,2013-09-03 23:53:00
7:53 PM,73.0,64.0,73,30.02,10.0,South,4.6,-,N/A,,Clear,190,2013-09-04 00:53:00
8:53 PM,69.1,63.0,81,30.03,10.0,Calm,Calm,-,N/A,,Clear,0,2013-09-04 01:53:00
9:53 PM,68.0,64.0,87,30.04,10.0,Calm,Calm,-,N/A,,Clear,0,2013-09-04 02:53:00
10:53 PM,64.9,63.0,93,30.03,10.0,Calm,Calm,-,N/A,,Clear,0,2013-09-04 03:53:00
11:53 PM,64.0,61.0,90,30.04,10.0,East,3.5,-,N/A,,Clear,80,2013-09-04 04:53:00